Preview of NWS' New Version of Forecast
This preview is not operational and should not be used for support decisions.

Regional Weather Roundup (RWR)

Issued by National Weather Service (NWS)

                            
000
ASUS45 KBOU 211210
RWRCO 

WEATHER ROUNDUP FOR COLORADO
NATIONAL WEATHER SERVICE DENVER/BOULDER CO
600 AM MDT SUN JUL 21 2019

NOTE: "FAIR" INDICATES FEW OR NO CLOUDS BELOW 12000 FEET WITH NO
SIGNIFICANT WEATHER AND/OR OBSTRUCTIONS TO VISIBILITY.

COZ001>005-013-030-031-211300-
...NORTHWEST COLORADO...
  
CITY           SKY/WX    TMP DP  RH WIND       PRES   REMARKS
CRAIG          FAIR      50  44  80 CALM      30.20R                  
HAYDEN         FAIR      56  46  69 E9        30.23R                  
MEEKER         FAIR      51  41  68 CALM      30.22R                  
RANGELY        FAIR      52  34  50 E7        30.11R                  
RABBIT EARS PA NOT AVBL                                               
STEAMBOAT SPGS FAIR      51  45  78 CALM      30.25R                  
WALDEN         NOT AVBL                                               
$$

COZ006>008-011-211300-
...WEST CENTRAL VALLEYS...
  
CITY           SKY/WX    TMP DP  RH WIND       PRES   REMARKS
GRAND JUNCTION FAIR      67  43  41 E12       30.07R                  
MONTROSE       FAIR      55  37  50 SE10      30.18R                  
EAGLE          FAIR      51  43  74 CALM      30.30R                  
RIFLE          FAIR      54  45  71 S5        30.17R                  
DELTA          FAIR      60  45  58 CALM      30.14R                  
NUCLA          FAIR      57  23  26 SE5       30.19S                  
$$

COZ017>023-064>068-211300-
...SOUTHWEST COLORADO...
  
CITY           SKY/WX    TMP DP  RH WIND       PRES   REMARKS
DURANGO        FAIR      49  40  71 E6        30.22R                  
CORTEZ         FAIR      49  33  54 NE5       30.17R                  
PAGOSA SPRINGS FAIR      54  42  64 CALM      30.32R                  
TELLURIDE      FAIR      52  27  37 S6        30.44R                  
WOLF CREEK PAS NOT AVBL                                               
$$

COZ009-010-012-014-032>034-037-058>063-211300-
...CENTRAL COLORADO...
  
CITY           SKY/WX    TMP DP  RH WIND       PRES   REMARKS
ASPEN          FAIR      46  36  68 S3        30.32R                  
BUENA VISTA    FAIR      50  43  77 W8        30.35S                  
COPPER MTN     FAIR      54  23  30 W7        30.63S                  
BERTHOUD PASS  FAIR      45  32  61 MISG      30.64R                  
COTTONWOOD PAS NOT AVBL                                               
GUNNISON       FAIR      45  43  93 CALM      30.38R                  
GRANBY         NOT AVBL                                               
KREMMLING      FAIR      45  43  93 CALM      30.34R                  
LEADVILLE      FAIR      40  37  89 NE7       30.48S                  
SALIDA         FAIR      55  44  65 W8        30.40R                  
SUNLIGHT       FAIR      52  25  35 S7        30.56R                  
WILKERSON PASS FAIR      52  34  50 W8        30.59R                  
$$

COZ069>075-211300-
...SAN LUIS VALLEY/SANGRE DE CRISTO MOUNTAINS...
  
CITY           SKY/WX    TMP DP  RH WIND       PRES   REMARKS
ALAMOSA        FAIR      51  45  79 W5        30.31S                  
DEL NORTE      FAIR      52  43  71 W15       30.35S                  
LA VETA PASS   NOT AVBL                                               
SAGUACHE       FAIR      52  43  71 CALM      30.34S                  
$$

COZ035-036-038>040-211300-
...NORTHERN COLORADO FRONT RANGE...
  
CITY           SKY/WX    TMP DP  RH WIND       PRES   REMARKS
DENVER INTL AP MOCLDY    61  56  83 W3        30.15F                  
AURORA         PTCLDY    58  56  94 S7        30.16F                  
FRONT RANGE AP MOCLDY    62  56  80 W7        30.16S                  
ERIE MUNI ARPT FAIR      57  55  92 CALM      30.18F                  
BOULDER MUN AP FAIR      59  54  82 SW3       30.14S                  
CENTENNIAL     FAIR      60  54  80 S3        30.17F                  
BROOMFIELD     FAIR      59  54  82 W5        30.16F                  
FORT COLLINS   MOCLDY    61  57  87 SW3       30.14S                  
LONGMONT       FAIR      60  55  85 CALM      30.15S HAZE             
$$

COZ041-046-047-076>085-087-088-211300-
...PIKES PEAK/PALMER DIVIDE AND SOUTHERN FOOTHILLS...
  
CITY           SKY/WX    TMP DP  RH WIND       PRES   REMARKS
COLO. SPRINGS  FAIR      60  53  77 NW3       30.23S                  
A. F. ACADEMY  CLEAR     53  51  93 E3        30.21F                  
SCHRIEVER AFB  NOT AVBL                                               
CHEYENNE MTN   NOT AVBL                                               
ELLICOTT         N/A    N/A N/A N/A N5        30.20R                  
FALCON         FAIR      54  51  92 N6        30.26S                  
FORT CARSON    FAIR      62  53  74 SW8       30.19S                  
LIMON          FAIR      56  55  97 CALM      30.15R                  
MONUMENT HILL  FAIR      52  50  93 S8        30.26S                  
CANON CITY     NOT AVBL                                               
WALSENBURG     NOT AVBL                                               
TRINIDAD       FAIR      57  49  74 W7        30.20R                  
$$

COZ042>045-048>051-090-091-211300-
...NORTHEAST COLORADO...
  
CITY           SKY/WX    TMP DP  RH WIND       PRES   REMARKS
GREELEY ARPT   FAIR      62  59  90 N3        30.13S                  
AKRON          FAIR      60  59  96 W6        30.11R                  
BURLINGTON     FAIR      66  63  90 W10       30.07R                  
WRAY           CLOUDY    63  63 100 N5        30.06R                  
YUMA           FAIR      63  59  88 N8        30.07S                  
STERLING       FAIR      61  59  94 N3        30.08R                  
HOLYOKE        CLOUDY    64  61  88 CALM      30.05F                  
FORT MORGAN    NOT AVBL                                               
$$

COZ086-089-092>099-211300-
...SOUTHEAST COLORADO...
  
CITY           SKY/WX    TMP DP  RH WIND       PRES   REMARKS
PUEBLO         FAIR      62  60  93 CALM      30.13S                  
LA JUNTA       FAIR      66  62  87 NW7       30.09R                  
LAMAR          FAIR      65  63  93 W6        30.03F                  
SPRINGFIELD      N/A     62  58  86 W6        30.09R                  
$$